| time (UTC) | temp F | wind direction | speed MPH | gust MPH | rain 1hr in | rain 24hr in | rain mn in | humidity % | barometer mb |
| 20260508090520 | 53 | 203 | 1.0 | 3.0 | 0.00 | 0.00 | 0.00 | 84 | 1013.6 |
| 20260508085520 | 53 | 197 | 1.0 | 3.0 | 0.00 | 0.00 | 0.00 | 83 | 1013.6 |
| 20260508084520 | 54 | 199 | 0.0 | 2.0 | 0.00 | 0.00 | 0.00 | 82 | 1013.7 |
| 20260508083521 | 54 | 194 | 2.0 | 5.0 | 0.00 | 0.00 | 0.00 | 82 | 1013.6 |
| 20260508082520 | 54 | 207 | 1.0 | 4.0 | 0.00 | 0.00 | 0.00 | 81 | 1013.7 |
| 20260508081520 | 54 | 199 | 2.0 | 7.0 | 0.00 | 0.00 | 0.00 | 80 | 1013.7 |
| 20260508080520 | 54 | 200 | 3.0 | 7.0 | 0.00 | 0.00 | 0.00 | 79 | 1013.8 |
| 20260508075520 | 55 | 180 | 0.0 | 3.0 | 0.00 | 0.00 | 0.00 | 78 | 1014.1 |
| 20260508074521 | 55 | 193 | 2.0 | 5.0 | 0.00 | 0.00 | 0.00 | 76 | 1014.0 |
| 20260508073520 | 55 | 200 | 5.0 | 8.0 | 0.00 | 0.00 | 0.00 | 74 | 1014.0 |
| 20260508072520 | 55 | 202 | 3.0 | 6.0 | 0.00 | 0.00 | 0.00 | 72 | 1014.3 |
| 20260508071521 | 55 | 194 | 2.0 | 4.0 | 0.00 | 0.00 | 0.00 | 71 | 1014.5 |
| 20260508070523 | 55 | 201 | 3.0 | 5.0 | 0.00 | 0.00 | 0.00 | 70 | 1014.4 |
| 20260508065522 | 55 | 203 | 4.0 | 7.0 | 0.00 | 0.00 | 0.00 | 69 | 1014.5 |
| 20260508064522 | 55 | 201 | 2.0 | 4.0 | 0.00 | 0.00 | 0.00 | 68 | 1014.6 |
| 20260508063521 | 56 | 203 | 2.0 | 5.0 | 0.00 | 0.00 | 0.00 | 67 | 1014.6 |
| 20260508062524 | 56 | 201 | 3.0 | 5.0 | 0.00 | 0.00 | 0.00 | 66 | 1014.6 |
| 20260508061523 | 57 | 197 | 1.0 | 4.0 | 0.00 | 0.00 | 0.00 | 64 | 1014.8 |
| 20260508060539 | 57 | 207 | 1.0 | 4.0 | 0.00 | 0.00 | 0.00 | 64 | 1015.0 |
| 20260508055521 | 57 | 196 | 2.0 | 6.0 | 0.00 | 0.00 | 0.00 | 62 | 1015.0 |
| 20260508054519 | 57 | 200 | 4.0 | 7.0 | 0.00 | 0.00 | 0.00 | 62 | 1015.0 |
| 20260508053519 | 57 | 198 | 3.0 | 6.0 | 0.00 | 0.00 | 0.00 | 63 | 1014.9 |
| 20260508052540 | 58 | 200 | 2.0 | 4.0 | 0.00 | 0.00 | 0.00 | 62 | 1015.0 |
| 20260508051519 | 58 | 199 | 3.0 | 5.0 | 0.00 | 0.00 | 0.00 | 61 | 1014.9 |
| 20260508050521 | 59 | 200 | 3.0 | 5.0 | 0.00 | 0.00 | 0.00 | 59 | 1014.8 |
| 20260508045520 | 59 | 202 | 2.0 | 5.0 | 0.00 | 0.00 | 0.00 | 58 | 1014.7 |
| 20260508044520 | 60 | 201 | 4.0 | 6.0 | 0.00 | 0.00 | 0.00 | 57 | 1014.8 |
| 20260508043524 | 61 | 200 | 2.0 | 5.0 | 0.00 | 0.00 | 0.00 | 56 | 1015.1 |
| 20260508042520 | 61 | 201 | 3.0 | 7.0 | 0.00 | 0.01 | 0.00 | 54 | 1015.1 |
| 20260508041520 | 62 | 194 | 4.0 | 7.0 | 0.00 | 0.02 | 0.00 | 53 | 1015.0 |
| 20260508040520 | 62 | 195 | 5.0 | 10.0 | 0.00 | 0.02 | 0.00 | 53 | 1014.9 |
| 20260508035521 | 63 | 193 | 5.0 | 8.0 | 0.00 | 0.03 | 0.00 | 52 | 1015.1 |
| 20260508034521 | 63 | 192 | 4.0 | 7.0 | 0.00 | 0.07 | 0.00 | 52 | 1015.1 |
| 20260508033520 | 64 | 191 | 5.0 | 9.0 | 0.00 | 0.09 | 0.00 | 51 | 1015.1 |
| 20260508032522 | 64 | 190 | 5.0 | 10.0 | 0.00 | 0.13 | 0.00 | 50 | 1014.8 |
| 20260508031542 | 65 | 192 | 6.0 | 9.0 | 0.00 | 0.18 | 0.00 | 50 | 1014.7 |
| 20260508030519 | 65 | 189 | 5.0 | 10.0 | 0.00 | 0.23 | 0.00 | 49 | 1014.7 |
| 20260508025520 | 66 | 187 | 6.0 | 10.0 | 0.00 | 0.28 | 0.00 | 49 | 1014.5 |
| 20260508024519 | 66 | 186 | 5.0 | 9.0 | 0.00 | 0.31 | 0.00 | 48 | 1014.4 |
| 20260508023519 | 67 | 183 | 6.0 | 12.0 | 0.00 | 0.31 | 0.00 | 46 | 1014.3 |
| 20260508022543 | 68 | 184 | 6.0 | 12.0 | 0.00 | 0.31 | 0.00 | 42 | 1014.2 |
| 20260508021540 | 69 | 191 | 4.0 | 7.0 | 0.00 | 0.31 | 0.00 | 39 | 1013.9 |
| 20260508020520 | 69 | 190 | 4.0 | 7.0 | 0.00 | 0.31 | 0.00 | 38 | 1013.9 |
| 20260508015519 | 70 | 188 | 3.0 | 6.0 | 0.00 | 0.31 | 0.00 | 37 | 1013.8 |
| 20260508014520 | 71 | 185 | 3.0 | 5.0 | 0.00 | 0.31 | 0.00 | 36 | 1013.8 |
| 20260508013522 | 72 | 178 | 4.0 | 6.0 | 0.00 | 0.31 | 0.00 | 35 | 1013.7 |
| 20260508012521 | 73 | 180 | 4.0 | 8.0 | 0.00 | 0.31 | 0.00 | 33 | 1013.6 |
| 20260508011521 | 74 | 189 | 3.0 | 7.0 | 0.00 | 0.31 | 0.00 | 33 | 1013.6 |
| 20260508010521 | 75 | 175 | 4.0 | 9.0 | 0.00 | 0.31 | 0.00 | 32 | 1013.6 |
| 20260508005521 | 75 | 186 | 5.0 | 9.0 | 0.00 | 0.31 | 0.00 | 31 | 1013.6 |
| 20260508004601 | 75 | 183 | 4.0 | 10.0 | 0.00 | 0.31 | 0.00 | 31 | 1013.6 |
| 20260508003521 | 76 | 186 | 6.0 | 10.0 | 0.00 | 0.31 | 0.00 | 31 | 1013.7 |
| 20260508002521 | 76 | 183 | 5.0 | 9.0 | 0.00 | 0.31 | 0.00 | 31 | 1013.8 |
| 20260508001521 | 77 | 168 | 2.0 | 6.0 | 0.00 | 0.31 | 0.00 | 30 | 1013.8 |
| 20260508000522 | 77 | 178 | 3.0 | 7.0 | 0.00 | 0.31 | 0.00 | 30 | 1013.9 |
| 20260507235521 | 77 | 181 | 4.0 | 8.0 | 0.00 | 0.31 | 0.00 | 30 | 1013.9 |
| 20260507234518 | 77 | 190 | 4.0 | 10.0 | 0.00 | 0.31 | 0.00 | 30 | 1013.9 |
| 20260507233520 | 78 | 190 | 5.0 | 11.0 | 0.00 | 0.31 | 0.00 | 30 | 1013.9 |
| 20260507232519 | 78 | 154 | 2.0 | 6.0 | 0.00 | 0.31 | 0.00 | 29 | 1013.9 |
| 20260507231539 | 78 | 184 | 4.0 | 8.0 | 0.00 | 0.31 | 0.00 | 29 | 1014.0 |
| 20260507230519 | 78 | 183 | 3.0 | 9.0 | 0.00 | 0.31 | 0.00 | 29 | 1014.0 |
| 20260507225542 | 78 | 182 | 2.0 | 5.0 | 0.00 | 0.31 | 0.00 | 29 | 1014.2 |
| 20260507224520 | 78 | 206 | 4.0 | 9.0 | 0.00 | 0.31 | 0.00 | 29 | 1014.4 |
| 20260507223521 | 77 | 185 | 3.0 | 8.0 | 0.00 | 0.31 | 0.00 | 29 | 1014.5 |
| 20260507222519 | 78 | 208 | 4.0 | 10.0 | 0.00 | 0.31 | 0.00 | 29 | 1014.7 |
| 20260507221520 | 78 | 173 | 3.0 | 8.0 | 0.00 | 0.31 | 0.00 | 30 | 1014.7 |
| 20260507220521 | 78 | 175 | 2.0 | 7.0 | 0.00 | 0.31 | 0.00 | 30 | 1014.7 |
| 20260507215521 | 77 | 135 | 2.0 | 6.0 | 0.00 | 0.31 | 0.00 | 29 | 1014.7 |
| 20260507214521 | 77 | 204 | 3.0 | 9.0 | 0.00 | 0.31 | 0.00 | 30 | 1014.8 |
| 20260507213520 | 77 | 178 | 1.0 | 4.0 | 0.00 | 0.31 | 0.00 | 30 | 1014.9 |
| 20260507212521 | 77 | 103 | 2.0 | 5.0 | 0.00 | 0.31 | 0.00 | 30 | 1015.0 |
| 20260507211520 | 77 | 119 | 1.0 | 5.0 | 0.00 | 0.31 | 0.00 | 30 | 1015.3 |
| 20260507210522 | 76 | 182 | 2.0 | 7.0 | 0.00 | 0.31 | 0.00 | 30 | 1015.4 |
| 20260507205523 | 76 | 232 | 3.0 | 10.0 | 0.00 | 0.31 | 0.00 | 30 | 1015.6 |
| 20260507204523 | 76 | 102 | 1.0 | 4.0 | 0.00 | 0.31 | 0.00 | 31 | 1015.9 |
| 20260507203542 | 75 | 157 | 1.0 | 5.0 | 0.00 | 0.31 | 0.00 | 31 | 1016.0 |
| 20260507202538 | 74 | 100 | 1.0 | 4.0 | 0.00 | 0.31 | 0.00 | 32 | 1016.2 |
| 20260507201522 | 74 | 54 | 1.0 | 3.0 | 0.00 | 0.31 | 0.00 | 33 | 1016.3 |
| 20260507200519 | 73 | 103 | 2.0 | 5.0 | 0.00 | 0.31 | 0.00 | 35 | 1016.5 |
| 20260507195519 | 73 | 60 | 2.0 | 6.0 | 0.00 | 0.31 | 0.00 | 34 | 1016.7 |
| 20260507194519 | 73 | 200 | 2.0 | 8.0 | 0.00 | 0.31 | 0.00 | 34 | 1017.0 |
| 20260507193520 | 73 | 126 | 1.0 | 4.0 | 0.00 | 0.31 | 0.00 | 35 | 1017.1 |
| 20260507192539 | 72 | 214 | 2.0 | 8.0 | 0.00 | 0.31 | 0.00 | 35 | 1017.3 |
| 20260507191540 | 71 | 215 | 2.0 | 9.0 | 0.00 | 0.31 | 0.00 | 37 | 1017.4 |
| 20260507190520 | 70 | 23 | 2.0 | 6.0 | 0.00 | 0.31 | 0.00 | 38 | 1017.5 |
| 20260507185520 | 70 | 255 | 3.0 | 12.0 | 0.00 | 0.31 | 0.00 | 39 | 1017.7 |
| 20260507184540 | 69 | 2 | 2.0 | 6.0 | 0.00 | 0.31 | 0.00 | 39 | 1017.9 |
| 20260507183520 | 69 | 169 | 2.0 | 6.0 | 0.00 | 0.31 | 0.00 | 39 | 1018.0 |
| 20260507182542 | 67 | 167 | 2.0 | 5.0 | 0.00 | 0.31 | 0.00 | 41 | 1018.2 |
| 20260507181521 | 67 | 294 | 3.0 | 7.0 | 0.00 | 0.31 | 0.00 | 42 | 1018.4 |
| 20260507180521 | 67 | 199 | 2.0 | 9.0 | 0.00 | 0.31 | 0.00 | 41 | 1018.6 |
| 20260507175521 | 68 | 147 | 2.0 | 7.0 | 0.00 | 0.31 | 0.00 | 41 | 1018.9 |
| 20260507174541 | 66 | 285 | 1.0 | 5.0 | 0.00 | 0.31 | 0.00 | 42 | 1019.1 |
| 20260507173524 | 65 | 165 | 1.0 | 6.0 | 0.00 | 0.31 | 0.00 | 43 | 1019.3 |
| 20260507172519 | 64 | 213 | 3.0 | 7.0 | 0.00 | 0.31 | 0.00 | 45 | 1019.5 |
| 20260507171518 | 65 | 190 | 3.0 | 7.0 | 0.00 | 0.31 | 0.00 | 44 | 1019.6 |
| 20260507170518 | 64 | 192 | 2.0 | 8.0 | 0.00 | 0.31 | 0.00 | 45 | 1019.8 |
| 20260507165519 | 63 | 217 | 1.0 | 4.0 | 0.00 | 0.31 | 0.00 | 46 | 1019.9 |
| 20260507164540 | 62 | 125 | 2.0 | 5.0 | 0.00 | 0.31 | 0.00 | 48 | 1020.1 |
| 20260507163518 | 62 | 125 | 2.0 | 6.0 | 0.00 | 0.32 | 0.00 | 47 | 1020.2 |
| 20260507162519 | 61 | 121 | 1.0 | 4.0 | 0.00 | 0.32 | 0.00 | 48 | 1020.4 |
| 20260507161520 | 60 | 219 | 0.0 | 3.0 | 0.00 | 0.32 | 0.00 | 49 | 1020.5 |
| 20260507160519 | 60 | 137 | 2.0 | 5.0 | 0.00 | 0.32 | 0.00 | 50 | 1020.5 |
| 20260507155519 | 58 | 107 | 0.0 | 3.0 | 0.00 | 0.32 | 0.00 | 52 | 1020.6 |
| 20260507154520 | 58 | 108 | 1.0 | 4.0 | 0.00 | 0.33 | 0.00 | 52 | 1020.7 |
| 20260507153540 | 57 | 108 | 1.0 | 4.0 | 0.00 | 0.35 | 0.00 | 54 | 1020.7 |
| 20260507152520 | 57 | 116 | 1.0 | 6.0 | 0.00 | 0.36 | 0.00 | 54 | 1020.7 |
| 20260507151520 | 57 | 111 | 1.0 | 3.0 | 0.00 | 0.36 | 0.00 | 55 | 1020.7 |
| 20260507150540 | 56 | 119 | 1.0 | 4.0 | 0.00 | 0.36 | 0.00 | 56 | 1020.8 |
| 20260507145520 | 55 | 120 | 2.0 | 4.0 | 0.00 | 0.37 | 0.00 | 58 | 1020.8 |
| 20260507144521 | 55 | 112 | 2.0 | 4.0 | 0.00 | 0.37 | 0.00 | 59 | 1020.8 |
| 20260507143521 | 54 | 108 | 3.0 | 5.0 | 0.00 | 0.37 | 0.00 | 60 | 1020.9 |
| 20260507142541 | 54 | 112 | 3.0 | 5.0 | 0.00 | 0.37 | 0.00 | 59 | 1021.0 |
| 20260507141521 | 52 | 117 | 3.0 | 4.0 | 0.00 | 0.37 | 0.00 | 61 | 1021.1 |
| 20260507140522 | 52 | 113 | 4.0 | 6.0 | 0.00 | 0.37 | 0.00 | 62 | 1021.0 |
| 20260507135518 | 52 | 107 | 3.0 | 6.0 | 0.00 | 0.37 | 0.00 | 61 | 1020.9 |
| 20260507134519 | 51 | 112 | 4.0 | 6.0 | 0.00 | 0.37 | 0.00 | 62 | 1020.8 |
| 20260507133559 | 51 | 102 | 3.0 | 5.0 | 0.00 | 0.37 | 0.00 | 61 | 1020.7 |
| 20260507132519 | 50 | 98 | 3.0 | 5.0 | 0.00 | 0.37 | 0.00 | 59 | 1020.7 |
| 20260507131519 | 50 | 94 | 3.0 | 5.0 | 0.00 | 0.37 | 0.00 | 59 | 1020.5 |
| 20260507130520 | 49 | 83 | 2.0 | 3.0 | 0.00 | 0.37 | 0.00 | 59 | 1020.5 |
| 20260507125519 | 49 | 86 | 2.0 | 4.0 | 0.00 | 0.37 | 0.00 | 60 | 1020.4 |
| 20260507124600 | 48 | 75 | 1.0 | 2.0 | 0.00 | 0.37 | 0.00 | 61 | 1020.4 |
| 20260507123521 | 47 | 68 | 1.0 | 2.0 | 0.00 | 0.37 | 0.00 | 62 | 1020.3 |
| 20260507122520 | 47 | 62 | 1.0 | 3.0 | 0.00 | 0.37 | 0.00 | 63 | 1020.0 |
| 20260507121520 | 47 | 70 | 2.0 | 3.0 | 0.00 | 0.37 | 0.00 | 64 | 1019.9 |
| 20260507120520 | 47 | 85 | 2.0 | 4.0 | 0.00 | 0.37 | 0.00 | 63 | 1019.9 |
| 20260507115521 | 48 | 96 | 2.0 | 5.0 | 0.00 | 0.37 | 0.00 | 63 | 1019.9 |
| 20260507114541 | 49 | 95 | 3.0 | 7.0 | 0.00 | 0.37 | 0.00 | 61 | 1019.9 |
| 20260507113522 | 49 | 95 | 4.0 | 8.0 | 0.00 | 0.37 | 0.00 | 60 | 1019.9 |
| 20260507112524 | 50 | 92 | 3.0 | 6.0 | 0.00 | 0.37 | 0.00 | 60 | 1019.9 |
| 20260507111521 | 50 | 89 | 4.0 | 6.0 | 0.00 | 0.37 | 0.00 | 59 | 1019.9 |
| 20260507110521 | 50 | 92 | 4.0 | 7.0 | 0.00 | 0.37 | 0.00 | 59 | 1020.0 |
| 20260507105522 | 50 | 85 | 5.0 | 8.0 | 0.00 | 0.37 | 0.00 | 58 | 1019.9 |
| 20260507104519 | 50 | 81 | 3.0 | 5.0 | 0.00 | 0.37 | 0.00 | 59 | 1019.9 |
| 20260507103519 | 50 | 75 | 4.0 | 6.0 | 0.00 | 0.37 | 0.00 | 59 | 1019.9 |
| 20260507102520 | 51 | 76 | 3.0 | 6.0 | 0.00 | 0.37 | 0.00 | 60 | 1020.0 |
| 20260507101518 | 51 | 77 | 4.0 | 7.0 | 0.00 | 0.37 | 0.00 | 61 | 1019.9 |
| 20260507100519 | 50 | 75 | 4.0 | 8.0 | 0.00 | 0.37 | 0.00 | 62 | 1019.9 |
| 20260507095519 | 49 | 62 | 3.0 | 6.0 | 0.00 | 0.37 | 0.00 | 67 | 1019.9 |
| 20260507094521 | 49 | 59 | 2.0 | 3.0 | 0.00 | 0.37 | 0.00 | 69 | 1019.8 |
| 20260507093520 | 50 | 63 | 2.0 | 4.0 | 0.00 | 0.37 | 0.00 | 69 | 1019.8 |
| 20260507092519 | 50 | 63 | 1.0 | 3.0 | 0.00 | 0.37 | 0.00 | 69 | 1019.7 |
| 20260507091520 | 51 | 71 | 1.0 | 3.0 | 0.00 | 0.37 | 0.00 | 68 | 1019.6 |